date,time,water_lv
2012-09-01,00:00:00,64.17
2012-09-01,00:10:00,64.17
2012-09-01,00:20:00,64.16
2012-09-01,00:30:00,64.15
2012-09-01,00:40:00,64.15
2012-09-01,00:50:00,64.14
2012-09-01,01:00:00,64.13
2012-09-01,01:10:00,64.13
2012-09-01,01:20:00,64.12
2012-09-01,01:30:00,64.11
2012-09-01,01:40:00,64.11
2012-09-01,01:50:00,64.11
2012-09-01,02:00:00,64.1
2012-09-01,02:10:00,64.09
2012-09-01,02:20:00,64.08
2012-09-01,02:30:00,64.08
2012-09-01,02:40:00,64.07
2012-09-01,02:50:00,64.06
2012-09-01,03:00:00,64.05
2012-09-01,03:10:00,64.06
2012-09-01,03:20:00,64.04
2012-09-01,03:30:00,64.04
2012-09-01,03:40:00,64.03
2012-09-01,03:50:00,64.02
2012-09-01,04:00:00,64.01
2012-09-01,04:10:00,64
2012-09-01,04:20:00,64
2012-09-01,04:30:00,63.99
2012-09-01,04:40:00,63.98
2012-09-01,04:50:00,63.99
2012-09-01,05:00:00,63.98
2012-09-01,05:10:00,63.97
2012-09-01,05:20:00,63.97
2012-09-01,05:30:00,63.96
2012-09-01,05:40:00,63.95
2012-09-01,05:50:00,63.94
2012-09-01,06:00:00,63.93
2012-09-01,06:10:00,63.93
2012-09-01,06:20:00,63.92
2012-09-01,06:30:00,63.92
2012-09-01,06:40:00,63.91
2012-09-01,06:50:00,63.9
2012-09-01,07:00:00,63.9
2012-09-01,07:10:00,63.89
2012-09-01,07:20:00,63.88
2012-09-01,07:30:00,63.88
2012-09-01,07:40:00,63.87
2012-09-01,07:50:00,63.86
2012-09-01,08:00:00,63.85
2012-09-01,08:10:00,63.85
2012-09-01,08:20:00,63.84
2012-09-01,08:30:00,63.84
2012-09-01,08:40:00,63.83
2012-09-01,08:50:00,63.82
2012-09-01,09:00:00,63.82
2012-09-01,09:10:00,63.82
2012-09-01,09:20:00,63.81
2012-09-01,09:30:00,63.8
2012-09-01,09:40:00,63.79
2012-09-01,09:50:00,63.79
2012-09-01,10:00:00,63.78
2012-09-01,10:10:00,63.78
2012-09-01,10:20:00,63.77
2012-09-01,10:30:00,63.77
2012-09-01,10:40:00,63.76
2012-09-01,10:50:00,63.76
2012-09-01,11:00:00,63.75
2012-09-01,11:10:00,63.74
2012-09-01,11:20:00,63.74
2012-09-01,11:30:00,63.72
2012-09-01,11:40:00,63.73
2012-09-01,11:50:00,63.72
2012-09-01,12:00:00,63.71
2012-09-01,12:10:00,63.71
2012-09-01,12:20:00,63.7
2012-09-01,12:30:00,63.7
2012-09-01,12:40:00,63.69
2012-09-01,12:50:00,63.69
2012-09-01,13:00:00,63.68
2012-09-01,13:10:00,63.67
2012-09-01,13:20:00,63.67
2012-09-01,13:30:00,63.66
2012-09-01,13:40:00,63.65
2012-09-01,13:50:00,63.65
2012-09-01,14:00:00,63.65
2012-09-01,14:10:00,63.64
2012-09-01,14:20:00,63.64
2012-09-01,14:30:00,63.64
2012-09-01,14:40:00,63.63
2012-09-01,14:50:00,63.62
2012-09-01,15:00:00,63.62
2012-09-01,15:10:00,63.6
2012-09-01,15:20:00,63.6
2012-09-01,15:30:00,63.6
2012-09-01,15:40:00,63.6
2012-09-01,15:50:00,63.57
2012-09-01,16:00:00,63.59
2012-09-01,16:10:00,63.59
2012-09-01,16:20:00,63.58
2012-09-01,16:30:00,63.58
2012-09-01,16:40:00,63.57
2012-09-01,16:50:00,63.57
2012-09-01,17:00:00,63.56
2012-09-01,17:10:00,63.56
2012-09-01,17:20:00,63.56
2012-09-01,17:30:00,63.55
2012-09-01,17:40:00,63.55
2012-09-01,17:50:00,63.55
2012-09-01,18:00:00,63.54
2012-09-01,18:10:00,63.54
2012-09-01,18:20:00,63.54
2012-09-01,18:30:00,63.53
2012-09-01,18:40:00,63.53
2012-09-01,18:50:00,63.52
2012-09-01,19:00:00,63.52
2012-09-01,19:10:00,63.51
2012-09-01,19:20:00,63.51
2012-09-01,19:30:00,63.51
2012-09-01,19:40:00,63.51
2012-09-01,19:50:00,63.5
2012-09-01,20:00:00,63.5
2012-09-01,20:10:00,63.5
2012-09-01,20:20:00,63.49
2012-09-01,20:30:00,63.48
2012-09-01,20:40:00,63.48
2012-09-01,20:50:00,63.48
2012-09-01,21:00:00,63.48
2012-09-01,21:10:00,63.47
2012-09-01,21:20:00,63.47
2012-09-01,21:30:00,63.47
2012-09-01,21:40:00,63.46
2012-09-01,21:50:00,63.46
2012-09-01,22:00:00,63.45
2012-09-01,22:10:00,63.45
2012-09-01,22:20:00,63.45
2012-09-01,22:30:00,63.45
2012-09-01,22:40:00,63.44
2012-09-01,22:50:00,63.43
2012-09-01,23:00:00,63.43
2012-09-01,23:10:00,63.43
2012-09-01,23:20:00,63.42
2012-09-01,23:30:00,63.42
2012-09-01,23:40:00,63.42
2012-09-01,23:50:00,63.42
2012-09-02,00:00:00,63.42
2012-09-02,00:10:00,63.42
2012-09-02,00:20:00,63.41
2012-09-02,00:30:00,63.4
2012-09-02,00:40:00,63.4
2012-09-02,00:50:00,63.39
2012-09-02,01:00:00,63.39
2012-09-02,01:10:00,63.39
2012-09-02,01:20:00,63.38
2012-09-02,01:30:00,63.38
2012-09-02,01:40:00,63.38
2012-09-02,01:50:00,63.38
2012-09-02,02:00:00,63.37
2012-09-02,02:10:00,63.37
2012-09-02,02:20:00,63.37
2012-09-02,02:30:00,63.36
2012-09-02,02:40:00,63.36
2012-09-02,02:50:00,63.36
2012-09-02,03:00:00,63.36
2012-09-02,03:10:00,63.35
2012-09-02,03:20:00,63.34
2012-09-02,03:30:00,63.34
2012-09-02,03:40:00,63.34
2012-09-02,03:50:00,63.34
2012-09-02,04:00:00,63.34
2012-09-02,04:10:00,63.34
2012-09-02,04:20:00,63.33
2012-09-02,04:30:00,63.32
2012-09-02,04:40:00,63.32
2012-09-02,04:50:00,63.32
2012-09-02,05:00:00,63.32
2012-09-02,05:10:00,63.31
2012-09-02,05:20:00,63.31
2012-09-02,05:30:00,63.31
2012-09-02,05:40:00,63.31
2012-09-02,05:50:00,63.3
2012-09-02,06:00:00,63.29
2012-09-02,06:10:00,63.29
2012-09-02,06:20:00,63.29
2012-09-02,06:30:00,63.29
2012-09-02,06:40:00,63.29
2012-09-02,06:50:00,-
2012-09-02,07:00:00,63.28
2012-09-02,07:10:00,63.28
2012-09-02,07:20:00,63.27
2012-09-02,07:30:00,63.26
2012-09-02,07:40:00,-
2012-09-02,07:50:00,-
2012-09-02,08:00:00,63.26
2012-09-02,08:10:00,63.26
2012-09-02,08:20:00,63.25
2012-09-02,08:30:00,63.25
2012-09-02,08:40:00,63.24
2012-09-02,08:50:00,63.24
2012-09-02,09:00:00,-
2012-09-02,09:10:00,-
2012-09-02,09:20:00,-
2012-09-02,09:30:00,-
2012-09-02,09:40:00,63.22
2012-09-02,09:50:00,63.22
2012-09-02,10:00:00,63.22
2012-09-02,10:10:00,63.21
2012-09-02,10:20:00,63.21
2012-09-02,10:30:00,63.21
2012-09-02,10:40:00,63.21
2012-09-02,10:50:00,63.2
2012-09-02,11:00:00,63.2
2012-09-02,11:10:00,63.2
2012-09-02,11:20:00,63.2
2012-09-02,11:30:00,63.19
2012-09-02,11:40:00,63.19
2012-09-02,11:50:00,63.18
2012-09-02,12:00:00,63.18
2012-09-02,12:10:00,63.18
2012-09-02,12:20:00,63.18
2012-09-02,12:30:00,63.17
2012-09-02,12:40:00,63.16
2012-09-02,12:50:00,63.16
2012-09-02,13:00:00,63.16
2012-09-02,13:10:00,63.16
2012-09-02,13:20:00,63.16
2012-09-02,13:30:00,63.15
2012-09-02,13:40:00,63.15
2012-09-02,13:50:00,63.14
2012-09-02,14:00:00,63.14
2012-09-02,14:10:00,63.14
2012-09-02,14:20:00,63.13
2012-09-02,14:30:00,63.13
2012-09-02,14:40:00,63.13
2012-09-02,14:50:00,63.12
2012-09-02,15:00:00,63.12
2012-09-02,15:10:00,63.12
2012-09-02,15:20:00,63.12
2012-09-02,15:30:00,63.12
2012-09-02,15:40:00,63.11
2012-09-02,15:50:00,63.11
2012-09-02,16:00:00,63.11
2012-09-02,16:10:00,63.1
2012-09-02,16:20:00,63.09
2012-09-02,16:30:00,63.1
2012-09-02,16:40:00,63.09
2012-09-02,16:50:00,63.09
2012-09-02,17:00:00,63.08
2012-09-02,17:10:00,63.08
2012-09-02,17:20:00,63.08
2012-09-02,17:30:00,63.08
2012-09-02,17:40:00,63.08
2012-09-02,17:50:00,63.07
2012-09-02,18:00:00,63.07
2012-09-02,18:10:00,63.05
2012-09-02,18:20:00,63.06
2012-09-02,18:30:00,63.06
2012-09-02,18:40:00,63.06
2012-09-02,18:50:00,63.05
2012-09-02,19:00:00,63.05
2012-09-02,19:10:00,63.05
2012-09-02,19:20:00,63.04
2012-09-02,19:30:00,63.04
2012-09-02,19:40:00,63.04
2012-09-02,19:50:00,63.03
2012-09-02,20:00:00,63.03
2012-09-02,20:10:00,63.03
2012-09-02,20:20:00,63.03
2012-09-02,20:30:00,63.02
2012-09-02,20:40:00,63.02
2012-09-02,20:50:00,63.01
2012-09-02,21:00:00,63.01
2012-09-02,21:10:00,63.01
2012-09-02,21:20:00,63
2012-09-02,21:30:00,63
2012-09-02,21:40:00,63
2012-09-02,21:50:00,62.99
2012-09-02,22:00:00,63
2012-09-02,22:10:00,62.99
2012-09-02,22:20:00,62.99
2012-09-02,22:30:00,62.98
2012-09-02,22:40:00,62.98
2012-09-02,22:50:00,62.98
2012-09-02,23:00:00,62.98
2012-09-02,23:10:00,62.97
2012-09-02,23:20:00,62.96
2012-09-02,23:30:00,62.96
2012-09-02,23:40:00,62.96
2012-09-02,23:50:00,62.96
2012-09-03,00:00:00,62.95
2012-09-03,00:10:00,62.95
2012-09-03,00:20:00,62.95
2012-09-03,00:30:00,62.95
2012-09-03,00:40:00,62.94
2012-09-03,00:50:00,62.94
2012-09-03,01:00:00,62.94
2012-09-03,01:10:00,62.93
2012-09-03,01:20:00,62.93
2012-09-03,01:30:00,62.93
2012-09-03,01:40:00,62.92
2012-09-03,01:50:00,62.92
2012-09-03,02:00:00,62.92
2012-09-03,02:10:00,62.92
2012-09-03,02:20:00,62.91
2012-09-03,02:30:00,62.91
2012-09-03,02:40:00,62.9
2012-09-03,02:50:00,62.9
2012-09-03,03:00:00,62.9
2012-09-03,03:10:00,62.89
2012-09-03,03:20:00,62.89
2012-09-03,03:30:00,62.89
2012-09-03,03:40:00,62.88
2012-09-03,03:50:00,62.88
2012-09-03,04:00:00,62.88
2012-09-03,04:10:00,62.88
2012-09-03,04:20:00,62.87
2012-09-03,04:30:00,62.87
2012-09-03,04:40:00,62.87
2012-09-03,04:50:00,62.86
2012-09-03,05:00:00,62.86
2012-09-03,05:10:00,62.86
2012-09-03,05:20:00,62.86
2012-09-03,05:30:00,62.85
2012-09-03,05:40:00,62.85
2012-09-03,05:50:00,62.84
2012-09-03,06:00:00,62.84
2012-09-03,06:10:00,62.84
2012-09-03,06:20:00,62.84
2012-09-03,06:30:00,62.83
2012-09-03,06:40:00,62.83
2012-09-03,06:50:00,62.83
2012-09-03,07:00:00,62.82
2012-09-03,07:10:00,62.82
2012-09-03,07:20:00,62.82
2012-09-03,07:30:00,62.82
2012-09-03,07:40:00,62.82
2012-09-03,07:50:00,62.81
2012-09-03,08:00:00,62.81
2012-09-03,08:10:00,62.8
2012-09-03,08:20:00,62.8
2012-09-03,08:30:00,62.8
2012-09-03,08:40:00,62.8
2012-09-03,08:50:00,62.79
2012-09-03,09:00:00,62.79
2012-09-03,09:10:00,62.79
2012-09-03,09:20:00,62.79
2012-09-03,09:30:00,62.78
2012-09-03,09:40:00,62.78
2012-09-03,09:50:00,62.78
2012-09-03,10:00:00,62.77
2012-09-03,10:10:00,62.77
2012-09-03,10:20:00,62.77
2012-09-03,10:30:00,62.76
2012-09-03,10:40:00,62.75
2012-09-03,10:50:00,62.76
2012-09-03,11:00:00,62.75
2012-09-03,11:10:00,62.75
2012-09-03,11:20:00,62.75
2012-09-03,11:30:00,62.74
2012-09-03,11:40:00,62.74
2012-09-03,11:50:00,62.74
2012-09-03,12:00:00,62.74
2012-09-03,12:10:00,62.74
2012-09-03,12:20:00,62.73
2012-09-03,12:30:00,62.73
2012-09-03,12:40:00,62.73
2012-09-03,12:50:00,62.72
2012-09-03,13:00:00,62.72
2012-09-03,13:10:00,62.72
2012-09-03,13:20:00,62.71
2012-09-03,13:30:00,62.71
2012-09-03,13:40:00,62.71
2012-09-03,13:50:00,62.71
2012-09-03,14:00:00,62.7
2012-09-03,14:10:00,62.7
2012-09-03,14:20:00,62.69
2012-09-03,14:30:00,62.7
2012-09-03,14:40:00,62.68
2012-09-03,14:50:00,62.67
2012-09-03,15:00:00,62.68
2012-09-03,15:10:00,62.69
2012-09-03,15:20:00,62.68
2012-09-03,15:30:00,62.67
2012-09-03,15:40:00,62.68
2012-09-03,15:50:00,62.67
2012-09-03,16:00:00,62.67
2012-09-03,16:10:00,62.66
2012-09-03,16:20:00,62.66
2012-09-03,16:30:00,62.65
2012-09-03,16:40:00,62.66
2012-09-03,16:50:00,62.66
2012-09-03,17:00:00,62.65
2012-09-03,17:10:00,62.64
2012-09-03,17:20:00,62.64
2012-09-03,17:30:00,62.64
2012-09-03,17:40:00,62.64
2012-09-03,17:50:00,62.65
2012-09-03,18:00:00,62.64
2012-09-03,18:10:00,62.64
2012-09-03,18:20:00,62.64
2012-09-03,18:30:00,62.64
2012-09-03,18:40:00,62.64
2012-09-03,18:50:00,62.64
2012-09-03,19:00:00,62.63
2012-09-03,19:10:00,62.63
2012-09-03,19:20:00,62.63
2012-09-03,19:30:00,62.63
2012-09-03,19:40:00,62.63
2012-09-03,19:50:00,62.63
2012-09-03,20:00:00,62.63
2012-09-03,20:10:00,62.62
2012-09-03,20:20:00,62.62
2012-09-03,20:30:00,62.62
2012-09-03,20:40:00,62.62
2012-09-03,20:50:00,62.62
2012-09-03,21:00:00,62.62
2012-09-03,21:10:00,62.62
2012-09-03,21:20:00,62.62
2012-09-03,21:30:00,62.62
2012-09-03,21:40:00,62.62
2012-09-03,21:50:00,62.62
2012-09-03,22:00:00,62.61
2012-09-03,22:10:00,62.62
2012-09-03,22:20:00,62.62
2012-09-03,22:30:00,62.61
2012-09-03,22:40:00,62.62
2012-09-03,22:50:00,62.62
2012-09-03,23:00:00,62.62
2012-09-03,23:10:00,62.62
2012-09-03,23:20:00,62.62
2012-09-03,23:30:00,62.62
2012-09-03,23:40:00,62.62
2012-09-03,23:50:00,62.63
2012-09-04,00:00:00,62.63
2012-09-04,00:10:00,62.63
2012-09-04,00:20:00,62.63
2012-09-04,00:30:00,62.64
2012-09-04,00:40:00,62.64
2012-09-04,00:50:00,62.64
2012-09-04,01:00:00,62.65
2012-09-04,01:10:00,62.65
2012-09-04,01:20:00,62.66
2012-09-04,01:30:00,62.66
2012-09-04,01:40:00,62.67
2012-09-04,01:50:00,62.67
2012-09-04,02:00:00,62.68
2012-09-04,02:10:00,62.68
2012-09-04,02:20:00,62.69
2012-09-04,02:30:00,62.7
2012-09-04,02:40:00,62.7
2012-09-04,02:50:00,62.71
2012-09-04,03:00:00,62.72
2012-09-04,03:10:00,62.73
2012-09-04,03:20:00,62.73
2012-09-04,03:30:00,62.75
2012-09-04,03:40:00,62.75
2012-09-04,03:50:00,62.76
2012-09-04,04:00:00,62.77
2012-09-04,04:10:00,62.78
2012-09-04,04:20:00,62.78
2012-09-04,04:30:00,62.8
2012-09-04,04:40:00,62.81
2012-09-04,04:50:00,62.81
2012-09-04,05:00:00,62.83
2012-09-04,05:10:00,62.84
2012-09-04,05:20:00,62.85
2012-09-04,05:30:00,62.86
2012-09-04,05:40:00,62.86
2012-09-04,05:50:00,62.89
2012-09-04,06:00:00,62.91
2012-09-04,06:10:00,62.93
2012-09-04,06:20:00,62.94
2012-09-04,06:30:00,62.94
2012-09-04,06:40:00,62.96
2012-09-04,06:50:00,62.97
2012-09-04,07:00:00,62.98
2012-09-04,07:10:00,63
2012-09-04,07:20:00,63.01
2012-09-04,07:30:00,63.02
2012-09-04,07:40:00,63.03
2012-09-04,07:50:00,63.05
2012-09-04,08:00:00,63.06
2012-09-04,08:10:00,63.07
2012-09-04,08:20:00,63.09
2012-09-04,08:30:00,63.1
2012-09-04,08:40:00,63.11
2012-09-04,08:50:00,63.13
2012-09-04,09:00:00,63.14
2012-09-04,09:10:00,63.15
2012-09-04,09:20:00,63.17
2012-09-04,09:30:00,63.19
2012-09-04,09:40:00,63.2
2012-09-04,09:50:00,63.22
2012-09-04,10:00:00,63.24
2012-09-04,10:10:00,63.25
2012-09-04,10:20:00,63.26
2012-09-04,10:30:00,63.28
2012-09-04,10:40:00,63.31
2012-09-04,10:50:00,63.32
2012-09-04,11:00:00,63.33
2012-09-04,11:10:00,63.36
2012-09-04,11:20:00,63.38
2012-09-04,11:30:00,63.4
2012-09-04,11:40:00,63.41
2012-09-04,11:50:00,63.44
2012-09-04,12:00:00,63.46
2012-09-04,12:10:00,63.47
2012-09-04,12:20:00,63.5
2012-09-04,12:30:00,63.52
2012-09-04,12:40:00,63.54
2012-09-04,12:50:00,63.55
2012-09-04,13:00:00,63.59
2012-09-04,13:10:00,63.61
2012-09-04,13:20:00,63.64
2012-09-04,13:30:00,63.66
2012-09-04,13:40:00,63.68
2012-09-04,13:50:00,63.72
2012-09-04,14:00:00,63.74
2012-09-04,14:10:00,63.76
2012-09-04,14:20:00,63.79
2012-09-04,14:30:00,63.81
2012-09-04,14:40:00,63.85
2012-09-04,14:50:00,63.86
2012-09-04,15:00:00,63.89
2012-09-04,15:10:00,63.9
2012-09-04,15:20:00,63.94
2012-09-04,15:30:00,63.96
2012-09-04,15:40:00,63.98
2012-09-04,15:50:00,64.01
2012-09-04,16:00:00,64.02
2012-09-04,16:10:00,64.06
2012-09-04,16:20:00,64.08
2012-09-04,16:30:00,64.1
2012-09-04,16:40:00,64.14
2012-09-04,16:50:00,64.16
2012-09-04,17:00:00,64.18
2012-09-04,17:10:00,64.21
2012-09-04,17:20:00,64.25
2012-09-04,17:30:00,64.26
2012-09-04,17:40:00,64.3
2012-09-04,17:50:00,64.32
2012-09-04,18:00:00,64.35
2012-09-04,18:10:00,64.38
2012-09-04,18:20:00,64.41
2012-09-04,18:30:00,64.43
2012-09-04,18:40:00,64.46
2012-09-04,18:50:00,64.49
2012-09-04,19:00:00,64.52
2012-09-04,19:10:00,64.55
2012-09-04,19:20:00,64.58
2012-09-04,19:30:00,64.6
2012-09-04,19:40:00,64.64
2012-09-04,19:50:00,64.66
2012-09-04,20:00:00,64.69
2012-09-04,20:10:00,64.71
2012-09-04,20:20:00,64.74
2012-09-04,20:30:00,64.77
2012-09-04,20:40:00,64.79
2012-09-04,20:50:00,64.82
2012-09-04,21:00:00,64.85
2012-09-04,21:10:00,64.87
2012-09-04,21:20:00,64.9
2012-09-04,21:30:00,64.92
2012-09-04,21:40:00,64.95
2012-09-04,21:50:00,64.97
2012-09-04,22:00:00,64.99
2012-09-04,22:10:00,65.01
2012-09-04,22:20:00,65.04
2012-09-04,22:30:00,65.06
2012-09-04,22:40:00,65.09
2012-09-04,22:50:00,65.11
2012-09-04,23:00:00,65.13
2012-09-04,23:10:00,65.15
2012-09-04,23:20:00,65.17
2012-09-04,23:30:00,65.19
2012-09-04,23:40:00,65.21
2012-09-04,23:50:00,65.24
2012-09-05,00:00:00,65.25
2012-09-05,00:10:00,65.27
2012-09-05,00:20:00,65.29
2012-09-05,00:30:00,65.31
2012-09-05,00:40:00,65.33
2012-09-05,00:50:00,65.35
2012-09-05,01:00:00,65.37
2012-09-05,01:10:00,65.39
2012-09-05,01:20:00,65.41
2012-09-05,01:30:00,65.42
2012-09-05,01:40:00,65.44
2012-09-05,01:50:00,65.46
2012-09-05,02:00:00,65.48
2012-09-05,02:10:00,65.49
2012-09-05,02:20:00,65.51
2012-09-05,02:30:00,65.52
2012-09-05,02:40:00,65.54
2012-09-05,02:50:00,65.56
2012-09-05,03:00:00,65.58
2012-09-05,03:10:00,65.59
2012-09-05,03:20:00,65.61
2012-09-05,03:30:00,65.63
2012-09-05,03:40:00,65.64
2012-09-05,03:50:00,65.65
2012-09-05,04:00:00,65.67
2012-09-05,04:10:00,65.68
2012-09-05,04:20:00,65.69
2012-09-05,04:30:00,65.71
2012-09-05,04:40:00,65.72
2012-09-05,04:50:00,65.74
2012-09-05,05:00:00,65.75
2012-09-05,05:10:00,65.76
2012-09-05,05:20:00,65.78
2012-09-05,05:30:00,65.79
2012-09-05,05:40:00,65.8
2012-09-05,05:50:00,65.81
2012-09-05,06:00:00,65.82
2012-09-05,06:10:00,65.84
2012-09-05,06:20:00,65.85
2012-09-05,06:30:00,65.86
2012-09-05,06:40:00,65.87
2012-09-05,06:50:00,65.88
2012-09-05,07:00:00,65.89
2012-09-05,07:10:00,65.9
2012-09-05,07:20:00,65.91
2012-09-05,07:30:00,65.92
2012-09-05,07:40:00,65.92
2012-09-05,07:50:00,65.94
2012-09-05,08:00:00,65.94
2012-09-05,08:10:00,65.95
2012-09-05,08:20:00,65.95
2012-09-05,08:30:00,65.96
2012-09-05,08:40:00,65.97
2012-09-05,08:50:00,65.98
2012-09-05,09:00:00,65.99
2012-09-05,09:10:00,66
2012-09-05,09:20:00,66.01
2012-09-05,09:30:00,66.01
2012-09-05,09:40:00,66.02
2012-09-05,09:50:00,66.02
2012-09-05,10:00:00,66.03
2012-09-05,10:10:00,66.04
2012-09-05,10:20:00,66.04
2012-09-05,10:30:00,66.05
2012-09-05,10:40:00,66.06
2012-09-05,10:50:00,66.06
2012-09-05,11:00:00,66.06
2012-09-05,11:10:00,66.08
2012-09-05,11:20:00,66.08
2012-09-05,11:30:00,66.08
2012-09-05,11:40:00,66.09
2012-09-05,11:50:00,66.09
2012-09-05,12:00:00,66.09
2012-09-05,12:10:00,66.1
2012-09-05,12:20:00,66.1
2012-09-05,12:30:00,66.11
2012-09-05,12:40:00,66.11
2012-09-05,12:50:00,66.11
2012-09-05,13:00:00,66.12
2012-09-05,13:10:00,66.12
2012-09-05,13:20:00,66.12
2012-09-05,13:30:00,66.12
2012-09-05,13:40:00,66.12
2012-09-05,13:50:00,66.12
2012-09-05,14:00:00,66.13
2012-09-05,14:10:00,66.13
2012-09-05,14:20:00,66.13
2012-09-05,14:30:00,66.13
2012-09-05,14:40:00,66.13
2012-09-05,14:50:00,66.13
2012-09-05,15:00:00,66.13
2012-09-05,15:10:00,66.13
2012-09-05,15:20:00,66.13
2012-09-05,15:30:00,66.13
2012-09-05,15:40:00,66.13
2012-09-05,15:50:00,66.13
2012-09-05,16:00:00,66.14
2012-09-05,16:10:00,66.13
2012-09-05,16:20:00,66.13
2012-09-05,16:30:00,66.13
2012-09-05,16:40:00,66.13
2012-09-05,16:50:00,66.13
2012-09-05,17:00:00,66.12
2012-09-05,17:10:00,66.13
2012-09-05,17:20:00,66.12
2012-09-05,17:30:00,66.12
2012-09-05,17:40:00,66.12
2012-09-05,17:50:00,66.11
2012-09-05,18:00:00,66.11
2012-09-05,18:10:00,66.11
2012-09-05,18:20:00,66.1
2012-09-05,18:30:00,66.1
2012-09-05,18:40:00,66.1
2012-09-05,18:50:00,66.09
2012-09-05,19:00:00,66.09
2012-09-05,19:10:00,66.09
2012-09-05,19:20:00,66.08
2012-09-05,19:30:00,66.07
2012-09-05,19:40:00,66.07
2012-09-05,19:50:00,66.07
2012-09-05,20:00:00,66.06
2012-09-05,20:10:00,66.06
2012-09-05,20:20:00,66.05
2012-09-05,20:30:00,66.05
2012-09-05,20:40:00,66.04
2012-09-05,20:50:00,66.04
2012-09-05,21:00:00,66.04
2012-09-05,21:10:00,66.02
2012-09-05,21:20:00,66.02
2012-09-05,21:30:00,66.01
2012-09-05,21:40:00,66.01
2012-09-05,21:50:00,66
2012-09-05,22:00:00,65.99
2012-09-05,22:10:00,65.99
2012-09-05,22:20:00,65.98
2012-09-05,22:30:00,65.97
2012-09-05,22:40:00,65.97
2012-09-05,22:50:00,65.96
2012-09-05,23:00:00,65.96
2012-09-05,23:10:00,65.94
2012-09-05,23:20:00,65.94
2012-09-05,23:30:00,65.93
2012-09-05,23:40:00,65.92
2012-09-05,23:50:00,65.91
2012-09-06,00:00:00,65.9
2012-09-06,00:10:00,65.9
2012-09-06,00:20:00,65.89
2012-09-06,00:30:00,65.88
2012-09-06,00:40:00,65.87
2012-09-06,00:50:00,65.86
2012-09-06,01:00:00,65.85
2012-09-06,01:10:00,65.85
2012-09-06,01:20:00,65.83
2012-09-06,01:30:00,65.83
2012-09-06,01:40:00,65.83
2012-09-06,01:50:00,65.81
2012-09-06,02:00:00,65.8
2012-09-06,02:10:00,65.79
2012-09-06,02:20:00,65.79
2012-09-06,02:30:00,65.78
2012-09-06,02:40:00,65.77
2012-09-06,02:50:00,65.76
2012-09-06,03:00:00,65.75
2012-09-06,03:10:00,65.74
2012-09-06,03:20:00,65.73
2012-09-06,03:30:00,65.72
2012-09-06,03:40:00,65.72
2012-09-06,03:50:00,65.7
2012-09-06,04:00:00,65.7
2012-09-06,04:10:00,65.69
2012-09-06,04:20:00,65.68
2012-09-06,04:30:00,65.67
2012-09-06,04:40:00,65.66
2012-09-06,04:50:00,65.65
2012-09-06,05:00:00,65.65
2012-09-06,05:10:00,65.64
2012-09-06,05:20:00,65.63
2012-09-06,05:30:00,65.62
2012-09-06,05:40:00,65.61
2012-09-06,05:50:00,65.61
2012-09-06,06:00:00,65.6
2012-09-06,06:10:00,65.58
2012-09-06,06:20:00,65.57
2012-09-06,06:30:00,65.57
2012-09-06,06:40:00,65.56
2012-09-06,06:50:00,65.55
2012-09-06,07:00:00,65.55
2012-09-06,07:10:00,65.54
2012-09-06,07:20:00,65.53
2012-09-06,07:30:00,65.52
2012-09-06,07:40:00,65.51
2012-09-06,07:50:00,65.51
2012-09-06,08:00:00,65.49
2012-09-06,08:10:00,65.49
2012-09-06,08:20:00,65.48
2012-09-06,08:30:00,65.48
2012-09-06,08:40:00,65.47
2012-09-06,08:50:00,65.46
2012-09-06,09:00:00,65.45
2012-09-06,09:10:00,65.45
2012-09-06,09:20:00,65.44
2012-09-06,09:30:00,65.44
2012-09-06,09:40:00,65.43
2012-09-06,09:50:00,65.42
2012-09-06,10:00:00,65.41
2012-09-06,10:10:00,65.41
2012-09-06,10:20:00,65.4
2012-09-06,10:30:00,65.4
2012-09-06,10:40:00,65.39
2012-09-06,10:50:00,65.39
2012-09-06,11:00:00,65.38
2012-09-06,11:10:00,65.38
2012-09-06,11:20:00,65.37
2012-09-06,11:30:00,65.37
2012-09-06,11:40:00,65.36
2012-09-06,11:50:00,65.36
2012-09-06,12:00:00,65.36
2012-09-06,12:10:00,65.35
2012-09-06,12:20:00,65.35
2012-09-06,12:30:00,65.34
2012-09-06,12:40:00,65.34
2012-09-06,12:50:00,65.34
2012-09-06,13:00:00,65.33
2012-09-06,13:10:00,65.33
2012-09-06,13:20:00,65.32
2012-09-06,13:30:00,65.32
2012-09-06,13:40:00,65.32
2012-09-06,13:50:00,65.32
2012-09-06,14:00:00,65.32
2012-09-06,14:10:00,65.31
2012-09-06,14:20:00,65.31
2012-09-06,14:30:00,65.32
2012-09-06,14:40:00,65.31
2012-09-06,14:50:00,65.31
2012-09-06,15:00:00,65.3
2012-09-06,15:10:00,65.31
2012-09-06,15:20:00,65.3
2012-09-06,15:30:00,65.31
2012-09-06,15:40:00,65.3
2012-09-06,15:50:00,65.3
2012-09-06,16:00:00,65.3
2012-09-06,16:10:00,65.3
2012-09-06,16:20:00,65.31
2012-09-06,16:30:00,65.3
2012-09-06,16:40:00,65.31
2012-09-06,16:50:00,65.3
2012-09-06,17:00:00,65.3
2012-09-06,17:10:00,65.31
2012-09-06,17:20:00,65.3
2012-09-06,17:30:00,65.31
2012-09-06,17:40:00,65.31
2012-09-06,17:50:00,65.31
2012-09-06,18:00:00,65.31
2012-09-06,18:10:00,65.32
2012-09-06,18:20:00,65.32
2012-09-06,18:30:00,65.32
2012-09-06,18:40:00,65.32
2012-09-06,18:50:00,65.32
2012-09-06,19:00:00,65.33
2012-09-06,19:10:00,65.32
2012-09-06,19:20:00,65.34
2012-09-06,19:30:00,65.35
2012-09-06,19:40:00,65.36
2012-09-06,19:50:00,65.36
2012-09-06,20:00:00,65.36
2012-09-06,20:10:00,65.37
2012-09-06,20:20:00,65.37
2012-09-06,20:30:00,65.38
2012-09-06,20:40:00,65.38
2012-09-06,20:50:00,65.38
2012-09-06,21:00:00,65.38
2012-09-06,21:10:00,65.39
2012-09-06,21:20:00,65.39
2012-09-06,21:30:00,65.39
2012-09-06,21:40:00,65.4
2012-09-06,21:50:00,65.4
2012-09-06,22:00:00,65.4
2012-09-06,22:10:00,65.4
2012-09-06,22:20:00,65.4
2012-09-06,22:30:00,65.41
2012-09-06,22:40:00,65.42
2012-09-06,22:50:00,65.42
2012-09-06,23:00:00,65.42
2012-09-06,23:10:00,65.42
2012-09-06,23:20:00,65.43
2012-09-06,23:30:00,65.43
2012-09-06,23:40:00,65.43
2012-09-06,23:50:00,65.44
2012-09-07,00:00:00,65.44
2012-09-07,00:10:00,65.44
2012-09-07,00:20:00,65.45
2012-09-07,00:30:00,65.45
2012-09-07,00:40:00,65.46
2012-09-07,00:50:00,65.46
2012-09-07,01:00:00,65.47
2012-09-07,01:10:00,65.47
2012-09-07,01:20:00,65.47
2012-09-07,01:30:00,65.48
2012-09-07,01:40:00,65.49
2012-09-07,01:50:00,65.49
2012-09-07,02:00:00,65.49
2012-09-07,02:10:00,65.5
2012-09-07,02:20:00,65.5
2012-09-07,02:30:00,65.5
2012-09-07,02:40:00,65.51
2012-09-07,02:50:00,65.51
2012-09-07,03:00:00,65.52
2012-09-07,03:10:00,65.52
2012-09-07,03:20:00,65.52
2012-09-07,03:30:00,65.53
2012-09-07,03:40:00,65.53
2012-09-07,03:50:00,65.53
2012-09-07,04:00:00,65.54
2012-09-07,04:10:00,65.54
2012-09-07,04:20:00,65.55
2012-09-07,04:30:00,65.55
2012-09-07,04:40:00,65.56
2012-09-07,04:50:00,65.56
2012-09-07,05:00:00,65.56
2012-09-07,05:10:00,65.57
2012-09-07,05:20:00,65.57
2012-09-07,05:30:00,65.57
2012-09-07,05:40:00,65.58
2012-09-07,05:50:00,65.58
2012-09-07,06:00:00,65.58
2012-09-07,06:10:00,65.59
2012-09-07,06:20:00,65.59
2012-09-07,06:30:00,65.6
2012-09-07,06:40:00,65.6
2012-09-07,06:50:00,65.6
2012-09-07,07:00:00,65.61
2012-09-07,07:10:00,65.61
2012-09-07,07:20:00,65.61
2012-09-07,07:30:00,65.61
2012-09-07,07:40:00,65.62
2012-09-07,07:50:00,65.62
2012-09-07,08:00:00,65.62
2012-09-07,08:10:00,65.62
2012-09-07,08:20:00,65.63
2012-09-07,08:30:00,65.63
2012-09-07,08:40:00,65.63
2012-09-07,08:50:00,65.63
2012-09-07,09:00:00,65.64
2012-09-07,09:10:00,65.64
2012-09-07,09:20:00,65.64
2012-09-07,09:30:00,65.64
2012-09-07,09:40:00,65.64
2012-09-07,09:50:00,65.64
2012-09-07,10:00:00,65.65
2012-09-07,10:10:00,65.65
2012-09-07,10:20:00,65.65